sat.trackr.live / text

‹ back to catalog

STARLINK-35230

NORAD 65681 · 2025-212F

PAYLOAD ACTIVE UNKNOWN

§ Identity

Operator
Country
US
Launch date
2025-09-21
Launch site
AFETR
Launch vehicle
Mass (kg)
RCS (m²)

Purposes: comms

External: N2YO · Heavens-Above · Gunter

§ Orbital elements

Epoch: 2026-09-19T16:53:56.346432Z

Period
93.85 min
Inclination
53.1573°
Eccentricity
0.0001221
Mean motion
15.34408948 rev/d
Perigee alt
461.8 km
Apogee alt
463.5 km
Semi-major
6,840.8 km
B*
5.4198e-4
RAAN
161.2627°
Arg perigee
83.8542°
Mean anomaly
276.2600°
Rev number
5,700

§ Raw data

STARLINK-352301 65681U 25212F   26262.70412438  .00017985  00000+0  54198-3 0  99942 65681  53.1573 161.2627 0001221  83.8542 276.2600 15.34408948 57004

JSON: /api/v1/satellites/65681 · /tle

For live sub-satellite position, see the globe view (requires WebGL).

§ Visibility from observer

Set your observer location to see the next 7 days of passes ≥ 10°. The values pass through the URL so the page stays shareable.

No JS? Fill the form by hand. The geolocation button needs JavaScript.